This is the latest recevied weather packets stored in our database for station/object KA4YMY. If no packets are shown the sender has not sent any weather packets the latest 10 day(s).
| Time | Temp. | Humidity | Pressure | Rain* | Wind** | Luminosity | Snow |
|---|---|---|---|---|---|---|---|
| 1777737316 | 13.89° C | 61% | 1013.5 hPa | 0 mm | - | - | - |
| 1777736716 | 13.89° C | 62% | 1013.4 hPa | 0 mm | - | - | - |
| 1777736116 | 13.89° C | 66% | 1013.3 hPa | 0 mm | - | - | - |
| 1777735516 | 13.89° C | 69% | 1013.1 hPa | 0 mm | - | - | - |
| 1777734916 | 13.33° C | 70% | 1013.3 hPa | 0 mm | - | - | - |
| 1777734316 | 13.33° C | 71% | 1013.5 hPa | 0 mm | - | - | - |
| 1777733716 | 13.33° C | 72% | 1013.8 hPa | 0 mm | - | - | - |
| 1777733116 | 12.78° C | 71% | 1013.3 hPa | 0 mm | - | - | - |
| 1777732516 | 12.78° C | 71% | 1013.4 hPa | 0 mm | - | - | - |
| 1777731916 | 12.78° C | 71% | 1013 hPa | 0 mm | - | - | - |
| 1777731316 | 12.78° C | 72% | 1013 hPa | 0 mm | - | - | - |
| 1777730716 | 12.78° C | 73% | 1013.2 hPa | 0 mm | - | - | - |
| 1777730116 | 12.78° C | 73% | 1012.9 hPa | 0 mm | - | - | - |
| 1777729516 | 12.22° C | 73% | 1012.9 hPa | 0 mm | - | - | - |
| 1777728916 | 12.22° C | 74% | 1013.1 hPa | 0 mm | - | - | - |
| 1777728316 | 12.22° C | 74% | 1013.2 hPa | 0 mm | - | - | - |
| 1777727716 | 12.22° C | 75% | 1013 hPa | 0 mm | - | - | - |
| 1777727118 | 12.22° C | 76% | 1013 hPa | 0 mm | - | - | - |
| 1777726518 | 12.22° C | 76% | 1012.9 hPa | 0 mm | - | - | - |
| 1777725917 | 12.22° C | 77% | 1012.6 hPa | 0 mm | - | - | - |
| 1777725318 | 12.22° C | 78% | 1012.4 hPa | 0 mm | - | - | - |
| 1777724717 | 12.22° C | 80% | 1012.2 hPa | 0 mm | - | - | - |
| 1777724117 | 12.22° C | 80% | 1012.7 hPa | 0 mm | - | - | - |
| 1777723518 | 12.22° C | 81% | 1012.4 hPa | 0 mm | - | - | - |
| 1777722917 | 12.22° C | 80% | 1011.9 hPa | 0 mm | - | - | - |
* Rain latest hour (hover to see other rain measurements)
** Current wind speed in m/s (hover to see current wind gust speed)